Location: Brivio
(45.7333°N, 9.4500°E)
Time: 10:01:07
(UTC+00:00)

Cosmos 1703 - Pass Details

Date: 18 October 2019
Orbit: 524 x 541 km, 82.5° (Epoch: 12 November)

Event Time Altitude Azimuth Distance (km) Brightness Sun altitude
Rises 17:05:40 0° 359° (N) 2,697 6.8 -6.6°
Reaches altitude 10° 17:07:59 10° 9° (N) 1,797 5.8 -7.0°
Maximum altitude 17:11:36 34° 75° (ENE) 897 3.9 -7.7°
Drops below altitude 10° 17:15:10 10° 141° (SE) 1,774 5.6 -8.3°
Sets 17:17:26 0° 151° (SSE) 2,655 6.6 -8.7°
